User: anonymous   Login
Location: Sandbanks Provincial Park
(47.6073°N, 57.6428°W)
Time: 11:12:07
(UTC-02:-30)
Language:

Cosmos 2034 Rocket - Orbit

View from above orbital plane
View from above orbital plane
View from above satellite
View from above satellite

Ground track
Ground track

The orbit data is extracted from the following two-line orbital elements,

1 20150U 89059B   17173.89069361 +.00000025 +00000-0 +99501-5 0  9996
2 20150 082.9411 089.8657 0027554 266.7442 136.8093 13.75638839400964
Epoch (UTC): 22 June 2017 21:22:35
Eccentricity: 0.0027554
inclination: 82.9411°
perigee height: 959 km
apogee height: 999 km
right ascension of ascending node: 89.8657°
argument of perigee: 266.7442°
revolutions per day: 13.75638839
mean anomaly at epoch: 136.8093°
orbit number at epoch: 40096

The dashed part of the orbit path shows where the satellite is in the earth's shadow,  

DLR